Location: Aalsum
(53.3404°N, 6.0062°E)
Time: 20:13:52
(UTC+00:00)

Daily predictions for brighter satellites

Satellite Brightness Start Highest point End
(mag) Time Altitude Azimuth Time Altitude Azimuth Time Altitude Azimuth
Cosmos 1992 Rocket 4.0 16:40:06 10° NNW 16:45:21 89° ENE 16:50:34 10° SSE
Cosmos 2219 3.3 16:40:10 10° NNW 16:45:50 89° WSW 16:51:27 10° SSE
Radarsat Rocket 4.2 16:40:32 10° SE 16:46:22 58° ENE 16:52:52 10° NNW
Meteor 1-31 Rocket 3.9 16:45:32 10° S 16:49:11 48° W 16:52:53 10° NNW
CZ-2D R/B 3.5 16:47:50 10° S 16:51:35 73° WSW 16:55:23 10° NNW
Cosmos 2026 Rocket 4.2 16:46:04 10° NNW 16:52:11 80° W 16:58:20 10° S
Cosmos 1092 Rocket 4.3 16:46:38 10° NNW 16:52:53 73° W 16:59:01 10° S
Cosmos 1634 Rocket 4.0 16:47:38 10° S 16:53:50 71° E 17:00:03 10° NNE
Landsat 4 3.7 16:51:09 10° SSE 16:54:46 83° WSW 16:58:26 10° NNW
RESURS DK-1 4.4 16:53:33 10° N 16:55:09 12° NNE 16:56:44 10° NE
USA 281 3.4 16:51:02 10° NNE 16:57:36 77° WNW 17:04:08 10° SW
Cosmos 1980 Rocket 3.2 16:53:26 10° SSE 16:58:07 28° ESE 17:02:51 10° NE
Meteor PRIRODA 3.5 16:55:24 10° SSE 16:58:55 67° ENE 17:02:28 10° N
ARGOS 3.5 16:54:35 10° S 16:59:55 71° WSW 17:05:19 10° NNW
COSMO-SKYMED 1 3.7 16:56:39 10° NE 17:00:15 25° E 17:03:50 10° SSE
Cosmos 2266 Rocket 4.3 16:58:09 10° N 17:04:17 47° ENE 17:10:17 10° SE
Cosmos 1697 Rocket 2.9 17:00:20 10° S 17:05:51 55° ESE 17:11:22 10° NE
NOSS 2-1 (C) 3.6 17:02:59 10° NW 17:06:54 66° NE 17:12:18 10° ESE
CZ-4B R/B 2.9 17:04:01 10° SSE 17:08:11 67° ENE 17:12:08 10° N
BlueWalker 3 3.7 17:06:26 10° S 17:09:17 20° SE 17:12:01 11° E
Lacrosse 5 rocket 1.5 17:06:29 10° W 17:09:56 47° N 17:12:59 13° ENE
Timation 2 Rocket 4.1 17:04:30 10° NNW 17:10:29 52° NE 17:16:40 10° ESE
Meteor 1-24 Rocket 3.7 17:06:26 10° S 17:12:10 83° E 17:17:43 10° NNE
Cosmos 2263 Rocket 2.2 17:07:52 10° NNW 17:13:28 64° NE 17:18:59 10° SE
NOSS 2-1 (D) 3.6 17:11:17 10° NW 17:15:13 75° NE 17:20:40 10° SE
Lacrosse 4 Rocket 3.7 17:13:10 10° WNW 17:16:04 17° NNW 17:18:58 10° NNE
ATLAS 5 CENTAUR R/B 1.3 17:12:25 10° SW 17:16:07 78° NW 17:20:15 11° NE
Okean O Rocket 2.9 17:13:16 10° ESE 17:16:29 20° ENE 17:19:43 10° N
CZ-2C R/B 3.8 17:15:40 10° N 17:20:51 45° WNW 17:26:07 10° SW
Cosmos 1763 Rocket 4.4 17:17:10 10° NNW 17:21:39 27° NE 17:25:53 11° ESE
Cosmos 2082 3.8 17:16:12 10° NNW 17:21:52 83° WSW 17:27:29 10° SSE
Meteor 2-5 Rocket 4.0 17:16:17 10° SSW 17:22:08 79° WNW 17:27:55 10° NNE
CZ-4C R/B 4.1 17:18:47 10° NNE 17:22:25 31° E 17:25:51 10° SSE
Cosmos 1943 Rocket 4.3 17:20:17 10° NW 17:22:57 13° N 17:25:38 10° NNE
Cosmos 1656 4.0 17:17:32 10° SW 17:23:00 63° NW 17:28:26 10° NNE
SL-08 R/B 3.4 17:18:50 10° NNE 17:23:46 74° ESE 17:28:42 10° S
Cosmos 1544 Rocket 3.5 17:19:27 10° N 17:23:47 66° ENE 17:28:05 10° SSE
Cosmos 2228 3.7 17:20:23 10° N 17:24:12 31° ENE 17:27:58 10° SE
DELTA 2 DEB (DPAF) 4.1 17:21:10 10° NNE 17:25:34 70° ESE 17:29:56 10° S
CZ-4B DEB 4.2 17:22:06 10° SSE 17:27:29 64° ENE 17:32:54 10° NNW
ATLAS 2AS CENTAUR R/B 2.9 17:20:30 10° NW 17:27:36 54° NNE 17:34:03 11° ESE
Cosmos 2279 Rocket 4.0 17:26:33 10° S 17:32:44 86° E 17:38:59 10° NNE
Meteor 2-1 Rocket 4.5 17:28:50 10° N 17:34:32 49° ENE 17:40:04 10° SE
ISS -3.4 17:31:23 10° W 17:34:43 63° S 17:37:02 18° ESE
Cosmos 2227 4.3 17:30:36 10° NNW 17:36:18 57° NE 17:41:59 10° SE
Cosmos 1455 Rocket 4.1 17:32:51 10° NNW 17:37:05 48° W 17:41:16 10° SSW
CZ-4B R/B 3.4 17:33:02 10° SE 17:38:06 45° ENE 17:43:14 10° N
Cosmos 1867 4.5 17:36:08 10° NW 17:41:27 52° SW 17:46:43 10° SSE
ATLAS CENTAUR R/B 2.7 17:39:42 10° S 17:43:39 27° ESE 17:45:17 22° E
Cosmos 614 Rocket 4.0 17:38:37 10° SSW 17:43:51 87° WNW 17:49:06 10° NNE
Cosmos 1269 Rocket 4.4 17:40:45 10° SW 17:46:01 67° WNW 17:51:20 10° NNE
Cosmos 1844 Rocket 3.3 17:41:10 10° NNW 17:46:16 34° NE 17:49:18 20° E
Cosmos 407 Rocket 4.1 17:42:56 10° SSE 17:47:29 32° ESE 17:50:15 20° NE
SKYMED 2 3.5 17:44:17 10° NNE 17:48:38 65° ESE 17:52:57 10° S
Cosmos 2360 4.3 17:43:17 10° SW 17:48:59 80° WNW 17:54:44 10° NNE
Cosmos 2278 4.4 17:44:03 10° S 17:49:03 33° ESE 17:52:09 20° ENE
IGS 5A 4.4 17:49:11 25° ENE 17:49:33 25° ENE 17:52:56 10° N
MOS 1-B 4.3 17:46:42 10° SE 17:52:24 62° ENE 17:58:09 10° NNW
Cosmos 540 Rocket 4.3 17:49:12 10° NNW 17:53:47 31° NE 17:55:34 25° E
NOSS 3-3 (A) 4.3 17:49:10 10° WSW 17:54:59 65° NW 18:00:34 16° NE
NOSS 3-3 (C) 4.3 17:49:16 10° WSW 17:55:05 66° NW 18:00:40 16° NE
SL-4 R/B 2.7 17:54:23 10° SW 17:57:33 32° SSE 17:58:33 27° ESE
Cosmos 2278 Rocket 3.9 17:56:52 10° NNW 18:00:17 16° NNE 18:01:49 14° NE
Cosmos 1340 Rocket 2.8 17:56:36 10° S 18:00:20 50° E 18:02:48 20° NNE
Cosmos 1408 2.9 17:57:40 10° SSE 18:00:41 37° E 18:00:41 37° E
USA 290 2.8 17:59:08 10° S 18:02:01 38° ESE 18:02:01 38° ESE
BREEZE-M DEB (TANK) 3.8 18:01:09 10° SW 18:04:13 35° SSE 18:07:22 21° ESE
Cosmos 1655 Rocket 4.1 18:02:03 10° NNW 18:08:23 80° W 18:14:36 10° S
NOSS 2-1 (E) 4.4 18:05:21 10° NW 18:09:30 57° SW 18:15:20 10° SSE
PAYLOAD B 4.2 18:04:05 10° SSE 18:09:38 85° WSW 18:15:11 10° NNW
YAOGAN 1 2.4 18:06:23 10° SSE 18:10:41 82° ENE 18:15:02 10° NNW
Cosmos 2322 Rocket 3.8 18:07:43 10° SE 18:09:28 16° SE 18:09:28 16° SE
SL-08 ROCKET BODY 4.2 18:05:46 10° N 18:11:44 74° ENE 18:17:35 10° SSE
Cosmos 1607 4.0 18:06:59 10° SSW 18:12:55 54° SE 18:16:06 28° ENE
Cosmos 1140 Rocket 3.5 18:07:51 10° S 18:12:56 58° ESE 18:16:04 23° NE
Cosmos 1703 4.0 18:10:00 10° SSW 18:13:43 52° WNW 18:17:29 10° N
Cosmos 1184 Rocket 2.8 18:14:14 10° NNW 18:16:36 50° W 18:16:38 50° WSW
CZ-4 R/B 1.3 18:13:07 10° SSE 18:17:13 63° ENE 18:21:18 10° N
Resurs 01 Rocket 3.9 18:19:54 11° NNE 18:19:54 11° NNE 18:20:16 10° NNE
Cosmos 2369 Rocket 4.4 18:17:05 10° NW 18:19:41 13° N 18:22:18 10° NNE
Cosmos 1536 Rocket 3.4 18:16:45 10° S 18:21:05 84° E 18:25:26 10° NNE
SL-16 R/B 2.9 18:16:42 10° SSE 18:21:31 32° ESE 18:21:31 32° ESE
Cosmos 1023 Rocket 4.3 18:17:27 10° SSW 18:22:35 71° ESE 18:25:41 24° NNE
COSMOS 2455 2.8 18:18:19 10° SW 18:24:21 85° SE 18:28:06 25° NE
Meteor 2-12 Rocket 4.4 18:22:47 10° N 18:28:53 63° ENE 18:34:53 10° SSE
Cosmos 2369 3.8 18:24:42 10° SW 18:30:23 77° WNW 18:34:31 19° NNE
Cosmos 44 3.0 18:26:13 10° SW 18:30:35 83° NW 18:31:59 44° NE
Cosmos 1892 4.0 18:27:41 10° S 18:29:28 26° SSE 18:29:28 26° SSE
Cosmos 1606 Rocket 3.3 18:28:00 10° N 18:32:21 78° ENE 18:35:44 16° SSE
IRIDIUM 104 4.4 18:28:10 10° N 18:33:19 53° E 18:36:10 25° SSE
Cosmos 1745 Rocket 4.3 18:28:04 10° N 18:34:01 41° ENE 18:34:50 40° E
RESURS DK-1 3.4 18:30:25 10° NNW 18:33:19 32° NNE 18:33:19 32° NNE
Cosmos 468 Rocket 3.9 18:31:13 10° NNW 18:36:26 67° ENE 18:37:59 44° SE
Cosmos 2251 Rocket 3.5 18:31:16 10° SSW 18:36:37 84° WNW 18:40:21 21° NNE
COSMO-SKYMED 1 3.5 18:32:27 10° N 18:36:39 47° WNW 18:40:49 10° SW
CSL-04 Debris 4.1 18:37:12 38° SE 18:39:05 58° ENE 18:44:24 10° N
SJ-6B 4.2 18:41:27 26° N 18:41:27 26° N 18:43:22 10° N
Cosmos 1980 Rocket 2.5 18:36:05 10° SW 18:41:43 67° NW 18:45:36 21° NNE
IRIDIUM 114 4.2 18:37:16 10° N 18:42:29 63° E 18:45:20 27° SSE
Okean-O 4.0 18:45:48 26° NNE 18:45:48 26° NNE 18:47:57 10° N
Meteor 1-11 4.2 18:38:54 10° S 18:44:39 66° E 18:50:25 10° NNE
Lacrosse 5 4.1 18:41:53 10° SSE 18:42:20 12° SSE 18:42:20 12° SSE
Cosmos 1241 Rocket 4.4 18:39:53 10° SSW 18:46:22 76° SE 18:49:05 38° NE
Cosmos 1328 4.2 18:42:44 10° SSW 18:46:42 63° WNW 18:48:49 26° N
BlueWalker 3 2.4 18:43:32 10° WSW 18:46:49 52° SSW 18:46:49 52° SSW
GEOS 3 Rocket 4.0 18:47:21 45° NE 18:47:49 46° NNE 18:52:51 10° NW
Lacrosse 5 rocket 1.8 18:45:38 10° WNW 18:48:24 44° NW 18:48:24 44° NW
Cosmos 1697 Rocket 3.9 18:44:48 10° WSW 18:50:04 38° NW 18:54:18 15° NNE
CSL-04 Rocket 3.5 18:50:17 58° ESE 18:50:58 64° ENE 18:56:18 10° NNW
Cosmos 1386 Rocket 4.4 18:45:23 10° N 18:51:19 55° ENE 18:51:48 53° E
IRIDIUM 103 4.2 18:46:25 10° N 18:51:40 74° E 18:54:30 28° SSE
Okean O Rocket 1.9 18:48:02 10° S 18:52:23 68° WSW 18:56:49 10° NNW
Feng Yun 1-1 Rocket 4.3 18:49:46 10° SSE 18:55:24 77° WSW 19:00:56 10° NNW
Lacrosse 4 Rocket 3.9 18:54:34 10° NNW 18:56:23 12° N 18:56:23 12° N
Cosmos 2263 Rocket 4.1 18:52:19 10° NW 18:57:01 28° WSW 19:01:39 10° SSW
ATLAS 5 CENTAUR R/B 3.0 18:57:44 10° WNW 19:01:13 27° NNW 19:01:38 27° N
Cosmos 1553 Rocket 3.8 18:57:07 10° S 19:03:05 65° E 19:09:11 10° NNE
Cosmos 1763 Rocket 3.7 18:58:44 10° NNW 19:03:56 68° WSW 19:05:58 36° S
Cosmos 1726 Rocket 3.8 19:02:40 10° NNW 19:06:58 65° W 19:07:07 64° WSW
Cosmos 1943 Rocket 4.1 19:05:31 10° NNW 19:08:37 17° NNE 19:08:37 17° NNE
IRIDIUM 106 4.3 19:04:44 10° N 19:09:59 82° W 19:12:35 31° S
Cosmos 841 Rocket 3.8 19:05:29 10° NNW 19:09:45 53° N 19:09:45 53° N
ISS -1.4 19:08:10 10° W 19:09:56 23° WSW 19:09:56 23° WSW
SL-08 R/B 4.4 19:05:17 10° NNW 19:11:31 85° W 19:17:34 11° S
ATLAS 2AS CENTAUR R/B 3.1 19:11:46 10° NW 19:18:44 60° SW 19:21:32 35° S
ATLAS CENTAUR R/B 2.2 19:17:16 10° SW 19:21:07 54° W 19:21:07 54° W
Cosmos 1844 3.8 19:21:23 10° NW 19:27:12 74° WSW 19:27:34 71° SSW
Cosmos 407 Rocket 4.3 19:24:20 10° SW 19:29:19 48° WNW 19:30:29 41° NNW
Cosmos 1844 Rocket 3.0 19:25:01 10° NW 19:30:31 62° WSW 19:31:01 59° SW
Cosmos 2278 4.2 19:27:22 10° SW 19:32:58 57° NW 19:34:05 48° N
Cosmos 540 Rocket 4.0 19:30:39 10° NNW 19:35:25 56° W 19:35:25 56° W
SL-4 R/B 4.4 19:32:55 10° WSW 19:33:53 17° WSW 19:33:53 17° WSW
Cosmos 2278 Rocket 3.7 19:40:49 10° NNW 19:43:40 26° N 19:43:40 26° N
CZ-4 R/B 4.1 19:49:39 10° SW 19:52:30 18° W 19:55:19 10° NW
Resurs 01 Rocket 4.4 19:57:26 12° NNW 19:57:26 12° NNW 19:57:45 10° NNW
Cosmos 2322 Rocket 3.9 19:49:23 10° SSW 19:51:22 23° SSW 19:51:22 23° SSW
SL-16 R/B 3.4 19:59:54 10° SW 20:03:27 37° WSW 20:03:27 37° WSW
Cosmos 2369 Rocket 4.5 20:02:46 10° NNW 20:04:24 14° N 20:04:24 14° N
COSMOS 2455 4.1 20:05:30 10° W 20:10:58 34° NNW 20:11:16 34° NNW
Cosmos 1980 Rocket 4.2 20:22:27 10° W 20:26:48 22° NNW 20:27:23 22° NNW
